Tracking 29594 objects as of 20-Sep-2024
HD Live streaming from Space Station
objects crossing your sky now

ORBCOMM FM 107

Track ORBCOMM FM 107 now!
10-day predictions
ORBCOMM FM 107 is classified as:


NORAD ID: 40087
Int'l Code: 2014-040B
Perigee: 709.1 km
Apogee: 710.0 km
Inclination: 47.0 °
Period: 98.8 minutes
Semi major axis: 7080 km
RCS: Unknown
Launch date: July 14, 2014
Source: United States (US)
Launch site: AIR FORCE EASTERN TEST RANGE (AFETR)
Your satellite tracking list
Your tracking list is empty




NASA's NSSDC Master Catalog

Two Line Element Set (TLE):
1 40087U 14040B   24264.24637445  .00002021  00000-0  48064-3 0  9991
2 40087  47.0038 211.3213 0000693 124.4371 235.6580 14.57141125541758
Source of the keplerian elements: AFSPC